Location: Cathedral Gorge
(37.8167°N, 114.4167°W)
Time: 22:00:01
(UTC-08:00)

Tiangong 2 - Visible Passes

Search period start: 10 December 2017 00:00
Search period end: 20 December 2017 00:00
Orbit: 386 x 390 km, 42.8° (Epoch: 10 December)

Date Brightness Start Highest point End Pass type
(mag) Time Alt. Az. Time Alt. Az. Time Alt. Az.
10 Dec 4.2 04:13:49 16° ESE 04:13:49 16° ESE 04:14:32 10° ESE visible
10 Dec 3.0 05:46:08 13° WSW 05:47:55 18° SW 05:50:12 10° S visible
11 Dec 2.8 04:50:42 26° S 04:50:42 26° S 04:52:35 10° SE visible
19 Dec 3.5 18:23:52 10° SSW 18:25:00 18° SSW 18:25:00 18° SSW visible
